[[{"header":{"parameterUnit":"m.s-1","parameterCategory":1,"la1":30.2991,"la2":30.254,"lo1":-89.0895,"lo2":-89.0444,"dy":0.0017,"dx":0.0017,"nx":28,"ny":28,"refTime":"2024-10-20T03:00:00:Z","depth":0,"parameterNumber":2,"parameterNumberName":"U-component_of_WINDS"},"data":[0,0,0,0,0,0,0,0,0,0,0,0,0,0,0,0,0,0,0,0,0,0,0,0,0,0,0,0,0,0,0,0,0,0,0,0,0,0,0,0,0,0,0,0,0,0,0,0,0,0,0,0,0,0,0,0,0,0,-2.4542,-2.4543,0,-2.4645,-2.4646,-2.4648,-2.4601,-2.4599,-2.4596,-2.4594,-2.4702,-2.4707,-2.4712,0,0,0,0,0,0,0,0,0,0,0,0,0,-2.4306,-2.4311,-2.4542,-2.4543,-2.4544,-2.4645,-2.4647,-2.4648,-2.4602,-2.4599,-2.4596,-2.4593,-2.47,-2.4706,-2.4712,0,0,0,0,0,0,0,0,0,0,0,0,0,-2.4409,-2.4312,-2.4542,-2.4534,-2.4534,-2.4645,-2.4647,-2.4648,-2.4602,-2.4599,-2.4595,-2.4591,-2.4698,-2.4705,-2.4713,-2.4839,0,0,-2.4737,-2.4741,0,0,0,0,0,0,0,0,-2.4403,-2.4418,-2.4533,-2.4534,-2.4535,-2.4606,-2.4603,-2.4712,-2.4603,-2.4576,-2.4594,-2.4589,-2.4673,-2.4683,-2.4711,-2.4844,-2.4849,-2.4738,-2.4743,-2.4746,-2.4748,0,0,0,0,0,0,0,-2.4396,-2.4413,-2.4583,-2.4535,-2.4536,-2.4525,-2.4536,-2.4623,-2.4645,-2.4579,-2.4575,-2.4588,-2.4673,-2.4703,-2.4713,-2.485,-2.4738,-2.4745,-2.475,-2.4753,-2.5092,-2.5097,0,0,0,0,0,0,-2.4389,-2.4408,-2.4579,-2.4586,-2.4458,-2.4533,-2.4544,-2.4587,-2.4644,-2.4649,-2.4591,-2.4586,-2.4692,-2.4704,-2.4717,-2.4868,-2.4746,-2.4754,-2.4758,-2.5088,-2.5093,-2.5098,0,0,0,0,0,0,-2.4384,-2.4405,-2.4575,-2.4496,-2.4517,-2.4541,-2.459,-2.4591,-2.4622,-2.4654,-2.4658,-2.4618,-2.4689,-2.4705,-2.4809,-2.4871,-2.4757,-2.4764,-2.5083,-2.509,-2.5096,-2.5172,0,0,0,0,0,0,-2.4378,-2.4403,-2.4451,-2.4497,-2.4521,-2.4666,-2.4593,-2.4596,-2.4635,-2.4629,-2.468,-2.4685,-2.4687,-2.4797,-2.4817,-2.488,-2.477,-2.5078,-2.5086,-2.5094,-2.5164,-2.518,-2.5194,0,0,0,0,0,-2.4369,-2.4468,-2.4454,-2.4475,-2.4581,-2.4669,-2.4683,-2.4683,-2.464,-2.4689,-2.4709,-2.4683,-2.4861,-2.4808,-2.483,-2.4896,-2.5074,-2.5084,-2.5093,-2.5157,-2.5177,-2.5193,0,0,0,0,0,0,-2.4429,-2.4474,-2.4458,-2.4575,-2.4619,-2.4661,-2.4722,-2.4704,-2.4761,-2.4753,-2.4751,-2.4763,-2.487,-2.4893,-2.4834,-2.5021,-2.4961,-2.4975,-2.5002,-2.5021,-2.5036,-2.5028,-2.4777,0,0,0,0,0,-2.4456,-2.4523,-2.4559,-2.4659,-2.4681,-2.4698,-2.4737,-2.4733,-2.4778,-2.4797,-2.4825,-2.487,-2.4936,-2.498,-2.5042,-2.5167,-2.5178,-2.5223,-2.5238,-2.525,-2.5263,-2.5331,-2.5352,-2.513,-2.513,-2.5129,0,0,-2.4512,-2.4545,-2.4587,-2.4672,-2.4705,-2.4775,-2.4714,-2.4791,-2.4843,-2.4808,-2.4908,-2.493,-2.4981,-2.5095,-2.5147,-2.5118,-2.5327,-2.5262,-2.5272,-2.5278,-2.5343,-2.5364,-2.5383,-2.5136,-2.5135,-2.5134,0,0,-2.465,-2.4681,-2.4768,-2.4803,-2.4854,-2.4864,-2.4885,-2.4931,-2.4944,-2.5044,-2.5019,-2.5082,-2.5195,-2.5233,-2.5267,-2.542,-2.5398,-2.544,-2.5519,-2.5585,-2.5603,-2.5618,-2.5674,-2.5693,-2.5452,-2.5453,-2.5453,0,-2.4713,-2.4818,-2.4815,-2.4894,-2.4932,-2.4903,-2.4992,-2.5026,-2.5095,-2.5122,-2.5088,-2.5231,-2.5263,-2.5386,-2.5423,-2.5451,-2.5476,-2.5434,-2.56,-2.5616,-2.563,-2.5683,-2.5704,-2.5457,-2.5457,-2.5456,-2.5456,0,-2.4893,-2.4966,-2.5031,-2.5098,-2.5143,-2.5226,-2.5237,-2.5283,-2.5276,-2.5291,-2.5393,-2.543,-2.55,-2.5529,-2.5523,-2.5652,-2.5632,-2.56,-2.5539,-2.5656,-2.5706,-2.5726,-2.5464,-2.5463,-2.5461,-2.546,0,0,-2.5072,-2.5137,-2.5161,-2.5191,-2.5246,-2.5302,-2.5385,-2.5453,-2.5493,-2.5541,-2.5611,-2.5708,-2.5678,-2.5717,-2.5714,-2.5773,-2.5893,-2.5733,-2.5734,-2.5762,-2.6038,-2.6063,-2.6087,-2.5878,-2.5882,-2.5885,-2.6034,0,-2.5215,-2.5359,-2.5359,-2.5492,-2.556,-2.5534,-2.5606,-2.5647,-2.5663,-2.5724,-2.5741,-2.581,-2.5765,-2.5788,-2.5845,-2.5866,-2.5948,-2.5855,-2.5944,-2.5947,-2.5933,-2.6112,-2.6139,-2.6278,-2.6054,-2.6057,-2.6059,0,-2.54,-2.5455,-2.5595,-2.564,-2.5669,-2.5733,-2.5796,-2.5854,-2.5901,-2.5908,-2.5951,-2.594,-2.6025,-2.5961,-2.6079,-2.6016,-2.6052,-2.6068,-2.6073,-2.6082,-2.6011,-2.6127,-2.6322,-2.6343,-2.609,-2.6087,-2.6085,0,-2.5518,-2.5626,-2.5724,-2.5751,-2.5806,-2.5852,-2.5877,-2.592,-2.5961,-2.6016,-2.6043,-2.6107,-2.6143,-2.6193,-2.62,-2.6153,-2.6318,-2.6255,-2.6328,-2.6328,-2.6364,-2.6362,-2.6569,-2.6387,-2.6386,-2.6386,-2.6385,0,-2.5677,-2.5764,-2.5778,-2.5838,-2.5935,-2.5934,-2.603,-2.6052,-2.609,-2.6155,-2.6136,-2.6197,-2.6202,-2.6265,-2.6271,-2.6368,-2.6384,-2.6393,-2.6394,-2.6395,-2.6394,-2.6419,-2.641,-2.6391,-2.639,-2.6389,-2.6388,0,-2.5825,-2.5837,-2.5942,-2.5986,-2.5999,-2.6068,-2.6106,-2.6164,-2.6177,-2.6259,-2.6279,-2.6301,-2.6374,-2.6386,-2.6472,-2.6476,-2.6592,-2.6583,-2.6576,-2.6575,-2.6647,-2.6641,-2.6878,-2.691,-2.6707,-2.6708,-2.671,0,-2.5926,-2.5992,-2.6043,-2.6085,-2.6112,-2.6179,-2.6221,-2.6224,-2.6268,-2.6327,-2.6378,-2.6449,-2.6507,-2.6625,-2.665,-2.6716,-2.6708,-2.6787,-2.6718,-2.6717,-2.671,-2.6706,-2.6713,-2.68,-2.6802,-2.6804,-2.6805,0,-2.6105,-2.6108,-2.6168,-2.6232,-2.6282,-2.6332,-2.638,-2.6415,-2.6424,-2.6475,-2.6549,-2.6594,-2.6682,-2.6753,-2.6819,-2.6845,-2.6828,-2.6827,-2.6847,-2.685,-2.6844,-2.6849,-2.6613,-2.6822,-2.682,-2.6819,-2.6818,-2.6817,-2.6233,-2.6291,-2.6335,-2.6404,-2.644,-2.6485,-2.6541,-2.6562,-2.6624,-2.6696,-2.6694,-2.6776,-2.6822,-2.6908,-2.6939,-2.7004,-2.6979,-2.7008,-2.7016,-2.7023,-2.703,-2.6833,-2.7016,-2.7016,-2.7015,-2.7015,-2.7015,0,-2.6411,-2.6438,-2.6501,-2.6568,-2.6623,-2.66,-2.6652,-2.6699,-2.6771,-2.6815,-2.6872,-2.6958,-2.7027,-2.7057,-2.7126,-2.7172,-2.7166,-2.719,-2.7187,-2.7193,-2.7049,-2.7025,-2.7194,-2.7194,-2.7194,-2.7194,-2.7194,-2.7194,-2.651,-2.6607,-2.6615,-2.673,-2.6757,-2.6837,-2.6869,-2.691,-2.6946,-2.7043,-2.71,-2.7119,-2.7158,-2.7229,-2.7292,-2.7299,-2.7325,-2.7353,-2.7357,-2.7221,-2.7203,-2.7186,-2.7163,-2.7359,-2.7359,-2.7496,-2.7497,-2.7498]},{"header":{"parameterUnit":"m.s-1","parameterCategory":1,"la1":30.2991,"la2":30.254,"lo1":-89.0895,"lo2":-89.0444,"dy":0.0017,"dx":0.0017,"nx":28,"ny":28,"refTime":"2024-10-20T03:00:00:Z","depth":0,"parameterNumber":3,"parameterNumberName":"V-component_of_WINDS"},"data":[0,0,0,0,0,0,0,0,0,0,0,0,0,0,0,0,0,0,0,0,0,0,0,0,0,0,0,0,0,0,0,0,0,0,0,0,0,0,0,0,0,0,0,0,0,0,0,0,0,0,0,0,0,0,0,0,0,0,-4.0523,-4.0524,0,-4.0551,-4.0552,-4.0552,-4.0484,-4.0482,-4.048,-4.0478,-4.0504,-4.0506,-4.0509,0,0,0,0,0,0,0,0,0,0,0,0,0,-4.0407,-4.041,-4.0523,-4.0524,-4.0524,-4.0551,-4.0552,-4.0552,-4.0484,-4.0482,-4.0479,-4.0477,-4.0503,-4.0506,-4.0509,0,0,0,0,0,0,0,0,0,0,0,0,0,-4.0449,-4.0411,-4.0523,-4.0494,-4.0491,-4.0551,-4.0552,-4.0552,-4.0485,-4.0482,-4.0479,-4.0476,-4.0502,-4.0506,-4.051,-4.0599,0,0,-4.0522,-4.0524,0,0,0,0,0,0,0,0,-4.0446,-4.0453,-4.0498,-4.0496,-4.0493,-4.0511,-4.052,-4.0568,-4.0486,-4.0487,-4.0478,-4.0474,-4.0508,-4.0512,-4.0524,-4.06,-4.0601,-4.0522,-4.0525,-4.0526,-4.0528,0,0,0,0,0,0,0,-4.0444,-4.0451,-4.0534,-4.0498,-4.0496,-4.0478,-4.048,-4.0529,-4.0515,-4.0487,-4.0482,-4.0486,-4.0507,-4.052,-4.0524,-4.0601,-4.0522,-4.0526,-4.0528,-4.053,-4.0751,-4.0754,0,0,0,0,0,0,-4.0445,-4.0449,-4.0533,-4.0535,-4.0462,-4.0482,-4.0485,-4.0509,-4.0515,-4.0513,-4.0489,-4.0483,-4.0515,-4.0519,-4.0525,-4.0629,-4.0526,-4.053,-4.0532,-4.0747,-4.0752,-4.0755,0,0,0,0,0,0,-4.0443,-4.0453,-4.0532,-4.0491,-4.05,-4.0488,-4.0515,-4.0511,-4.0524,-4.0517,-4.0513,-4.0506,-4.0513,-4.0519,-4.0581,-4.0629,-4.0532,-4.0536,-4.0743,-4.0749,-4.0753,-4.0839,0,0,0,0,0,0,-4.044,-4.0453,-4.0488,-4.0492,-4.0502,-4.0589,-4.0518,-4.0514,-4.0532,-4.0524,-4.0531,-4.0529,-4.0511,-4.0575,-4.0585,-4.0633,-4.0539,-4.0739,-4.0746,-4.0752,-4.0832,-4.0846,-4.0859,0,0,0,0,0,-4.0436,-4.051,-4.049,-4.05,-4.0546,-4.0592,-4.0598,-4.0575,-4.0536,-4.057,-4.0565,-4.0529,-4.0622,-4.0582,-4.0592,-4.0642,-4.0736,-4.0744,-4.0751,-4.0825,-4.0843,-4.0858,0,0,0,0,0,0,-4.051,-4.051,-4.0488,-4.0566,-4.058,-4.0581,-4.0623,-4.0595,-4.062,-4.0612,-4.0582,-4.0584,-4.0651,-4.0653,-4.0608,-4.0728,-4.0672,-4.0682,-4.0725,-4.0742,-4.0755,-4.0753,-4.0542,0,0,0,0,0,-4.0536,-4.0575,-4.0572,-4.0641,-4.065,-4.0636,-4.0655,-4.0637,-4.0649,-4.0654,-4.0654,-4.0667,-4.0698,-4.072,-4.0749,-4.0831,-4.0831,-4.0871,-4.0884,-4.0895,-4.0904,-4.0947,-4.0964,-4.0781,-4.0781,-4.0781,0,0,-4.0589,-4.0594,-4.062,-4.0657,-4.0665,-4.0705,-4.0641,-4.0686,-4.0715,-4.0661,-4.0719,-4.0719,-4.0732,-4.0804,-4.0836,-4.0807,-4.0955,-4.0905,-4.0914,-4.0917,-4.0957,-4.0974,-4.099,-4.0786,-4.0785,-4.0784,0,0,-4.0706,-4.0714,-4.0772,-4.0782,-4.0797,-4.0786,-4.0801,-4.0806,-4.0804,-4.0862,-4.0823,-4.0856,-4.0912,-4.0922,-4.0934,-4.1055,-4.1023,-4.1065,-4.1136,-4.1178,-4.1192,-4.1205,-4.1247,-4.1263,-4.1074,-4.1074,-4.1074,0,-4.077,-4.083,-4.0806,-4.0854,-4.087,-4.0824,-4.0882,-4.0892,-4.0915,-4.0927,-4.0895,-4.0964,-4.0969,-4.1042,-4.1072,-4.1084,-4.1098,-4.1064,-4.1192,-4.1205,-4.1216,-4.1256,-4.1273,-4.1079,-4.1079,-4.1078,-4.1078,0,-4.0908,-4.095,-4.0995,-4.1018,-4.104,-4.1093,-4.1075,-4.11,-4.1079,-4.1072,-4.1131,-4.1136,-4.1165,-4.1181,-4.1161,-4.1251,-4.1233,-4.1198,-4.114,-4.1239,-4.1276,-4.1292,-4.1087,-4.1085,-4.1083,-4.1082,0,0,-4.1073,-4.1082,-4.1099,-4.1109,-4.1121,-4.1152,-4.1202,-4.1231,-4.1253,-4.1269,-4.131,-4.1358,-4.1325,-4.1339,-4.132,-4.1357,-4.1451,-4.1316,-4.1316,-4.1341,-4.155,-4.1577,-4.1595,-4.143,-4.1433,-4.1435,-4.1549,0,-4.1188,-4.1276,-4.1255,-4.134,-4.1378,-4.1334,-4.1377,-4.1389,-4.1383,-4.1414,-4.1407,-4.1441,-4.1395,-4.1403,-4.1438,-4.1432,-4.1493,-4.1424,-4.1466,-4.1468,-4.1464,-4.1615,-4.1643,-4.1751,-4.1563,-4.1566,-4.1568,0,-4.1335,-4.1358,-4.1448,-4.1453,-4.1468,-4.1508,-4.1532,-4.1562,-4.1573,-4.1566,-4.1583,-4.1556,-4.1604,-4.1546,-4.1612,-4.1565,-4.1581,-4.1581,-4.1584,-4.1587,-4.1524,-4.1621,-4.1785,-4.1801,-4.159,-4.1588,-4.1587,0,-4.1446,-4.15,-4.156,-4.157,-4.1577,-4.1606,-4.161,-4.1619,-4.1637,-4.1658,-4.1669,-4.1696,-4.171,-4.173,-4.1711,-4.1671,-4.1779,-4.172,-4.1774,-4.1774,-4.1798,-4.1797,-4.1966,-4.1809,-4.1809,-4.1809,-4.1808,0,-4.1577,-4.1634,-4.161,-4.1647,-4.1709,-4.1683,-4.1745,-4.1744,-4.1751,-4.1787,-4.175,-4.1784,-4.1756,-4.1787,-4.1772,-4.1828,-4.1834,-4.183,-4.1825,-4.1833,-4.1834,-4.1843,-4.1835,-4.1813,-4.1812,-4.1811,-4.181,0,-4.1712,-4.1698,-4.1761,-4.1763,-4.1765,-4.181,-4.1811,-4.1845,-4.1837,-4.1882,-4.1891,-4.1877,-4.1912,-4.1895,-4.193,-4.192,-4.1992,-4.1977,-4.1989,-4.1985,-4.2039,-4.2035,-4.2221,-4.2243,-4.2072,-4.2074,-4.2075,0,-4.1796,-4.1839,-4.1846,-4.1867,-4.1874,-4.1909,-4.1928,-4.1904,-4.1925,-4.1941,-4.1972,-4.2004,-4.2028,-4.2084,-4.2077,-4.2104,-4.209,-4.2153,-4.2093,-4.21,-4.209,-4.2088,-4.2091,-4.2165,-4.2167,-4.2168,-4.217,0,-4.1948,-4.1939,-4.1968,-4.1995,-4.2019,-4.2038,-4.2055,-4.2074,-4.205,-4.2075,-4.2111,-4.2129,-4.2166,-4.2197,-4.222,-4.2223,-4.2193,-4.2189,-4.2202,-4.2211,-4.2216,-4.2214,-4.2021,-4.2184,-4.2183,-4.2182,-4.2181,-4.2181,-4.206,-4.2095,-4.2105,-4.2139,-4.2148,-4.2165,-4.2196,-4.2192,-4.2221,-4.225,-4.2233,-4.2275,-4.2283,-4.2312,-4.2318,-4.2349,-4.2324,-4.2344,-4.2349,-4.2355,-4.2362,-4.2211,-4.2354,-4.2353,-4.2353,-4.2352,-4.2352,0,-4.2209,-4.2213,-4.2244,-4.2268,-4.2294,-4.2264,-4.228,-4.2304,-4.2341,-4.2352,-4.2376,-4.2416,-4.2446,-4.2442,-4.2469,-4.2495,-4.2481,-4.2502,-4.25,-4.2501,-4.2383,-4.2368,-4.2513,-4.2513,-4.2513,-4.2513,-4.2513,-4.2513,-4.2289,-4.2348,-4.234,-4.2402,-4.2405,-4.2446,-4.2458,-4.2472,-4.2481,-4.2528,-4.2553,-4.255,-4.2554,-4.2581,-4.2607,-4.2605,-4.2616,-4.2643,-4.2636,-4.2525,-4.251,-4.2494,-4.248,-4.2646,-4.2646,-4.2751,-4.2752,-4.2753]}]]